Location: Fasanenhof
(48.7107°N, 9.1590°E)
Time: 11:42:01
(UTC+00:00)

Daily predictions for brighter satellites

Satellite Brightness Start Highest point End
(mag) Time Altitude Azimuth Time Altitude Azimuth Time Altitude Azimuth
ARGOS 3.5 15:58:45 10° SE 16:03:50 42° ENE 16:08:54 10° N
SMAP 3.5 16:00:19 10° SE 16:04:39 40° ENE 16:09:00 10° N
Cosmos 2333 Rocket 2.3 15:59:37 10° NNW 16:05:13 57° ENE 16:10:46 10° SE
Lacrosse 5 2.9 16:00:38 10° WNW 16:05:15 33° N 16:09:50 10° ENE
CZ-4B R/B 4.2 16:00:36 10° S 16:05:38 59° WSW 16:10:35 10° NNW
SeaSat 1 4.4 16:05:17 10° E 16:06:42 11° E 16:08:07 10° ESE
NOAA 12 4.2 16:01:22 10° SSE 16:06:42 89° WSW 16:12:04 10° NNW
BREEZE-M R/B 3.5 16:05:18 10° W 16:07:41 80° SSW 16:14:57 10° ESE
Orbus 7S? 4.1 16:03:51 10° SSW 16:07:46 32° SE 16:10:19 10° ENE
Cosmos 2322 4.2 16:02:29 10° NNW 16:07:52 39° NE 16:13:12 10° ESE
Cosmos 1862 3.4 16:04:18 10° NNW 16:08:17 80° W 16:12:13 10° S
Cosmos 2360 Rocket 2.2 16:03:10 10° NNW 16:08:51 86° ENE 16:14:31 10° SSE
Cosmos 405 4.3 16:07:51 10° NNW 16:10:59 42° W 16:14:07 10° SSW
Cosmos 192 4.4 16:06:28 10° S 16:11:17 60° ESE 16:16:08 10° NNE
Cosmos 1666 4.2 16:09:19 10° NNE 16:11:40 16° ENE 16:14:01 10° ESE
COSMO-SKYMED 1 4.5 16:11:16 10° ENE 16:12:54 12° E 16:14:31 10° ESE
Cosmos 2344 4.4 16:07:02 10° NW 16:14:35 41° NNE 16:24:20 10° E
Cosmos 1850 Rocket 4.4 16:09:50 10° NNW 16:15:05 70° WSW 16:20:15 10° SSE
Landsat 4 3.6 16:11:31 10° SSE 16:15:14 78° ENE 16:18:59 10° NNW
Cosmos-2242 3.0 16:13:40 10° S 16:17:55 76° E 16:22:15 10° NNE
Cosmos 1110 Rocket 4.0 16:13:03 10° SSW 16:18:13 70° ESE 16:23:28 10° NNE
Cosmos 2154 Rocket 4.0 16:17:08 10° S 16:23:19 72° E 16:29:31 10° NNE
Cosmos 2184 Rocket 4.1 16:18:05 10° S 16:24:14 87° W 16:30:29 10° N
Cosmos 389 Rocket 3.6 16:21:41 10° NNW 16:24:56 46° W 16:28:11 10° S
Cosmos 1782 4.4 16:23:25 10° ESE 16:25:41 15° E 16:27:15 12° ENE
Cosmos 968 Rocket 3.5 16:20:56 10° NNW 16:26:01 59° ENE 16:31:07 10° SE
Intercosmos 24 4.2 16:21:05 10° N 16:26:46 81° E 16:30:47 10° SSE
COSMOS 2428 3.1 16:21:59 10° NNW 16:27:22 41° NE 16:32:42 10° ESE
CZ-2C R/B 2.6 16:22:40 10° NNE 16:27:58 90° ESE 16:33:08 10° SSW
ATLAS 3B R/B 3.0 16:21:52 10° SSW 16:28:18 53° ESE 16:35:08 10° NE
CZ-4B R/B 3.3 16:26:13 10° SE 16:29:37 34° ENE 16:33:11 10° N
Lacrosse 5 rocket 3.7 16:26:38 10° WNW 16:30:31 30° SW 16:34:28 10° SSE
ADEOS 3.5 16:30:01 10° SSE 16:35:11 67° ENE 16:40:23 10° N
Meteor 1-31 Rocket 4.1 16:34:36 10° S 16:38:20 45° W 16:42:05 10° NNW
Nadezhda 3 Rocket 4.2 16:33:52 10° N 16:40:15 82° W 16:46:37 10° S
CZ-4C R/B 4.5 16:39:21 16° NE 16:41:15 23° E 16:44:22 10° SSE
USA 234 3.9 16:36:35 13° ENE 16:42:03 44° N 16:48:09 10° WNW
Cosmos 1766 Rocket 3.6 16:38:02 10° N 16:42:30 62° ENE 16:46:55 10° SSE
Cosmos 1331 Rocket 4.1 16:38:57 10° SSW 16:44:14 81° WNW 16:49:35 10° NNE
Cosmos 1500 3.3 16:40:45 10° N 16:44:26 49° ENE 16:48:06 10° SSE
SJ-11-01 4.2 16:40:30 10° SSE 16:45:10 68° ENE 16:49:50 10° N
CZ-4B R/B 4.3 16:42:23 10° ESE 16:46:34 22° ENE 16:50:42 10° N
SL-16 R/B 3.9 16:45:09 10° N 16:48:04 14° NNE 16:49:03 13° NE
Cosmos 44 4.3 16:44:25 10° NW 16:48:54 48° WSW 16:53:36 10° SSE
SL-27 R/B 2.7 16:46:01 10° S 16:49:03 39° ESE 16:50:41 22° NE
H-2A R/B 3.2 16:44:42 10° S 16:49:39 46° W 16:54:29 10° NNW
Cosmos 2219 Rocket 2.1 16:44:30 10° NNW 16:50:09 83° ENE 16:55:45 10° SSE
Meteor 1-20 Rocket 4.2 16:44:35 10° N 16:50:17 70° ENE 16:56:04 10° SSE
CENTAUR R/B 4.1 16:45:41 10° WNW 16:51:30 26° N 16:56:46 14° NE
SL-4 R/B 2.3 16:48:56 10° W 16:53:13 56° N 16:55:33 23° ENE
Cosmos 2218 Rocket 4.4 16:48:23 10° SSE 16:54:21 43° E 17:00:20 10° NNE
ISS -3.7 16:51:43 10° WNW 16:55:04 81° SSW 16:57:24 18° ESE
CZ-2D R/B 3.8 16:51:51 10° S 16:55:35 60° W 16:59:23 10° NNW
CZ-4B DEB 4.5 16:53:07 10° SE 16:58:21 45° ENE 17:03:36 10° N
Cosmos 1980 4.4 16:53:48 10° NNW 16:58:51 32° NE 17:02:18 18° E
Cosmos 2084 Rocket 4.5 16:56:33 10° S 16:59:42 23° ESE 17:00:24 22° ESE
SKYMED 2 4.2 16:59:00 19° NE 17:01:26 33° E 17:05:22 10° SSE
DELTA 2 DEB (DPAF) 4.0 16:57:37 10° NNE 17:02:04 84° ESE 17:06:28 10° SSW
NOAA 6 3.9 16:57:15 10° SSE 17:02:24 81° ENE 17:07:33 10° NNW
Cosmos 2237 Rocket 2.9 16:58:47 10° NNW 17:03:56 33° NE 17:06:58 20° E
Meteor PRIRODA 3.8 17:02:05 10° S 17:05:43 73° WSW 17:09:23 10° NNW
Cosmos 1833 4.5 17:01:13 10° SW 17:07:00 71° WNW 17:12:37 11° NNE
SL-08 RB Rocket 3.7 17:03:20 10° S 17:07:50 80° WSW 17:12:20 10° NNW
YAOGAN 1 4.1 17:09:32 19° NNE 17:09:32 19° NNE 17:11:22 10° N
BREEZE-M DEB (TANK) 4.1 17:04:44 10° W 17:08:23 89° S 17:20:45 13° ESE
SL-24 DEB 4.2 17:08:18 10° S 17:13:03 79° E 17:17:50 10° N
CZ-4C R/B 2.3 17:10:23 10° SW 17:15:11 68° NW 17:19:25 19° NE
Cosmos 1544 3.0 17:12:11 10° N 17:15:37 51° ENE 17:19:01 10° SSE
SJ 16-02 2.0 17:12:05 10° N 17:16:08 33° ENE 17:16:24 33° ENE
Cosmos 1602 4.0 17:13:58 10° NNW 17:17:48 67° W 17:21:35 10° S
Cosmos 1486 Rocket 3.9 17:13:22 10° NNW 17:18:33 61° ENE 17:23:41 10° SE
Cosmos 1992 Rocket 4.2 17:13:34 10° S 17:18:34 49° ESE 17:21:08 27° NE
NOSS 3-1 (A) 4.2 17:14:50 10° SSE 17:18:56 24° ESE 17:19:12 24° ESE
NOSS 3-1 (C) 3.4 17:16:35 10° SSW 17:21:30 47° ESE 17:23:52 30° ENE
BlueWalker 3 2.5 17:19:53 10° WNW 17:23:39 43° N 17:24:20 38° NE
Tiangong -0.2 17:23:45 10° SW 17:26:11 20° S 17:26:33 19° SSE
ARGOS Delta rocket 3.9 17:21:47 10° N 17:26:31 79° WNW 17:31:29 10° SSW
SL-08 R/B 3.7 17:23:23 10° N 17:27:57 60° WNW 17:32:28 10° SSW
Cosmos 2221 2.6 17:23:37 10° SSW 17:27:59 79° W 17:32:22 10° N
ATLAS CENTAUR R/B 1.2 17:25:17 10° NW 17:29:42 81° NE 17:31:31 32° SE
NOSS 0 Rocket 3.8 17:23:26 10° NNW 17:29:43 73° ENE 17:35:57 10° SE
NOSS 2-3 (D) 3.3 17:28:23 10° SW 17:32:15 78° SE 17:33:22 47° NE
NOSS 2-3 (C) 3.3 17:28:30 10° SW 17:32:23 84° SE 17:33:38 45° NE
Meteor 1-14 Rocket 4.4 17:28:06 10° N 17:33:31 47° ENE 17:38:59 10° SE
Cosmos 2341 Rocket 4.2 17:30:07 10° SSW 17:36:27 74° W 17:42:47 10° N
Cosmos 1302 Rocket 4.5 17:33:08 10° SW 17:38:18 59° WNW 17:42:28 16° NNE
Cosmos 1959 Rocket 4.3 17:32:18 10° S 17:38:24 83° E 17:44:32 10° N
SKYMED 3 4.4 17:40:16 57° ENE 17:40:50 63° ESE 17:45:00 10° S
DMSP B5D2-2 4.0 17:36:23 10° NNE 17:41:38 86° WNW 17:46:51 10° SSW
Timation 1 Rocket 4.2 17:35:49 10° SSW 17:41:46 80° ESE 17:44:51 30° NE
Cosmos 1842 Rocket 3.5 17:37:42 10° S 17:42:07 83° W 17:44:57 22° N
Cosmos 1461 4.4 17:38:40 10° NNW 17:41:34 25° NNE 17:41:34 25° NNE
COBE Rocket 4.3 17:39:06 10° S 17:44:05 68° W 17:49:13 10° NNW
SeaSat 1 2.3 17:43:25 43° NE 17:44:59 71° ESE 17:49:54 10° SSW
PSLV R/B 3.7 17:45:45 72° ENE 17:45:45 72° ENE 17:49:44 10° N
Cosmos 1933 3.6 17:42:26 10° SSW 17:46:25 66° W 17:48:37 25° N
Cosmos 1812 2.8 17:43:21 10° SSW 17:47:07 73° W 17:48:04 48° N
Cosmos 1666 3.6 17:43:37 10° NNW 17:47:16 47° W 17:50:55 10° SSW
Aureole 1 Rocket 3.5 17:43:53 10° NNW 17:48:27 55° ENE 17:49:09 51° E
Cosmos 1500 Rocket 3.3 17:44:30 10° N 17:48:50 77° E 17:53:09 10° SSE
Cosmos 2333 Rocket 4.4 17:44:29 10° NW 17:49:07 27° WSW 17:53:44 10° SSW
Lacrosse 5 2.5 17:44:27 10° NW 17:49:13 39° NNE 17:49:29 39° NNE
COSMO-SKYMED 1 2.5 17:47:38 32° N 17:49:39 82° WNW 17:53:59 10° SSW
Cosmos 864 Rocket 4.5 17:44:01 10° SSW 17:50:10 81° W 17:56:25 10° N
Cosmos 1408 Rocket 3.9 17:46:08 10° NNW 17:50:35 67° W 17:55:00 10° S
Cosmos 1782 3.6 17:57:37 10° SSW 18:01:26 49° WNW 18:02:45 34° NNW
Iridium 4 Rocket 4.1 17:57:25 10° SSW 18:02:35 54° W 18:07:20 10° N
MOS 1-B 4.2 17:57:41 10° SSE 18:03:27 85° ENE 18:09:17 10° NNW
Cosmos 1743 Rocket 3.6 18:02:20 10° NNW 18:06:48 81° W 18:06:49 81° WSW
Feng Yun 1-1 Rocket 4.4 18:09:36 57° NE 18:09:36 57° NE 18:14:50 10° N
Meteor 1-5 Rocket 4.5 18:03:22 10° NNW 18:09:15 74° W 18:15:12 10° S
Cosmos 1354 Rocket 3.8 18:05:10 10° NNW 18:10:32 80° ENE 18:10:39 79° E
COSMOS 2428 4.0 18:06:21 10° NW 18:11:36 39° WSW 18:16:48 10° S
Cosmos 2227 Rocket 3.9 18:06:53 10° S 18:08:32 19° SSE 18:08:32 19° SSE
Meteor 2-6 Rocket 4.3 18:08:53 10° S 18:14:05 62° SE 18:14:05 62° SE
Cosmos 2297 Rocket 2.6 18:09:27 10° S 18:13:43 47° SSE 18:13:43 47° SSE
NOSS 2-3 (E) 4.3 18:11:56 10° WSW 18:15:28 45° NW 18:15:28 45° NW
ATLAS 3B R/B 3.4 18:12:35 10° WSW 18:19:11 48° NW 18:22:23 30° NNE
Cosmos 1821 Rocket 3.9 18:17:43 10° S 18:24:01 86° W 18:27:31 28° N
USA 234 3.5 18:23:56 50° NNE 18:24:24 51° NNE 18:30:41 10° WNW
CZ-4B R/B 3.4 18:21:03 10° S 18:26:37 71° WSW 18:32:08 10° NNW
Okean O Rocket 4.3 18:30:56 11° NNW 18:30:56 11° NNW 18:31:04 10° NNW
Cosmos 1503 Rocket 4.4 18:22:10 10° NNW 18:27:28 63° WSW 18:28:54 45° SSW
Cosmos 2344 4.2 18:21:20 10° NW 18:30:05 83° SW 18:39:12 20° SSE
ISS -0.8 18:29:05 10° W 18:30:21 16° WSW 18:30:21 16° WSW
SL-4 R/B 3.8 18:28:44 10° WNW 18:30:55 29° WNW 18:30:55 29° WNW
SL-16 R/B 3.5 18:28:07 10° NNW 18:30:56 28° N 18:30:56 28° N
BREEZE-M DEB (TANK) 3.5 18:31:59 10° WNW 18:39:19 57° W 18:39:19 57° W
USA 229 DEB 4.1 18:35:47 10° SSW 18:39:59 43° S 18:39:59 43° S
USA 229 4.2 18:35:54 10° SSW 18:40:02 43° S 18:40:02 43° S
Cosmos 1980 4.3 18:37:43 10° NW 18:43:12 53° WSW 18:44:14 46° SW
CENTAUR R/B 3.8 18:37:31 10° NW 18:43:56 36° NNE 18:43:56 36° NNE
Cosmos 2237 Rocket 2.9 18:42:43 10° NW 18:48:15 51° WSW 18:48:52 49° SW
SJ 16-02 3.4 18:50:42 10° NW 18:53:24 26° WNW 18:53:24 26° WNW
CZ-4C R/B 3.9 19:00:22 10° WNW 19:04:36 25° NNW 19:04:36 25° NNW
ATLAS CENTAUR R/B 4.3 19:05:29 10° W 19:07:28 14° WSW 19:07:28 14° WSW
NOSS 3-1 (A) 4.5 19:03:49 10° SW 19:06:41 34° WSW 19:06:41 34° WSW
NOSS 3-1 (C) 4.4 19:07:14 10° WSW 19:11:17 38° WNW 19:11:17 38° WNW
Lacrosse 5 4.4 19:27:31 10° NW 19:28:42 17° NW 19:28:42 17° NW
